Home > Weather > Güstrow > Past weeks

Flag for Germany Past Weather in Güstrow, Mecklenburg-Western Pomerania, Germany — Yesterday and Last 2 Weeks

Now
72 °F

Scattered clouds.


Feels Like: 77 °F
Forecast: 56 / 67 °F
Wind: 9 mph from Southwest

Location: Laage

Current Time: Jun 27, 2016 at 6:42:17 PM

Latest Report: Jun 27, 2016 at 5:20 PM


Visibility: N/A

Pressure: 29.98 "Hg

Humidity: 50%

Dew Point: 52 °F

Location of GüstrowLocation

Past Weather in Güstrow — Graph

°F

Güstrow Temperature Yesterday

Maximum temperature yesterday: 70 °F (at 3:20 PM)
Minimum temperature yesterday: 57 °F (at 6:20 AM)
Average temperature yesterday: 64 °F

High & Low Weather Summary for the Past Weeks

 TemperatureHumidityPressure
High88 °F (Jun 23, 3:20 PM)100% (Jun 12, 9:20 PM)30.24 "Hg (Jun 12, 9:20 PM)
Low46 °F (Jun 20, 5:20 AM)40% (Jun 24, 2:20 PM)29.45 "Hg (Jun 14, 7:20 PM)
Average64 °F78%29.86 "Hg
* Reported Jun 12 5:20 PM — Jun 27 5:20 PM, Güstrow, Weather by CustomWeather, © 2016

Note: Actual official high and low records may vary slightly from our data, if they occured in-between our weather recording intervals... More about our weather records

Advertising

Güstrow Weather History for the Previous 24 Hours

Scroll right to see more
 ConditionsComfort  
Time TempWeatherWind HumidityBarometerVisibility
5:20 PM
Mon, Jun 27
72 °FScattered clouds.9 mph50%29.98 "HgN/A
4:20 PM72 °FScattered clouds.9 mph47%29.98 "HgN/A
3:20 PM72 °FPassing clouds.9 mph47%29.98 "HgN/A
2:20 PM68 °FScattered clouds.13 mph49%30.01 "HgN/A
1:20 PM68 °FPassing clouds.12 mph53%30.01 "HgN/A
12:20 PM68 °FPassing clouds.10 mph49%30.01 "HgN/A
11:20 AM66 °FPassing clouds.10 mph56%30.01 "HgN/A
10:20 AM64 °FPassing clouds.12 mph64%30.01 "HgN/A
9:20 AM63 °FPassing clouds.9 mph73%30.01 "HgN/A
8:20 AM61 °FPassing clouds.8 mph77%30.01 "HgN/A
7:20 AM57 °FPartly sunny.7 mph88%30.01 "HgN/A
6:20 AM55 °FPassing clouds.6 mph88%30.01 "HgN/A
5:20 AM54 °FFog.5 mph94%30.01 "HgN/A
4:20 AM54 °FFog.2 mph94%30.01 "HgN/A
3:20 AM55 °FPassing clouds.6 mph88%30.01 "HgN/A
2:20 AM54 °FPassing clouds.3 mph94%30.01 "HgN/A
1:20 AM55 °FCool.2 mph88%30.01 "HgN/A
12:20 AM57 °FCool.3 mph82%30.01 "HgN/A
11:20 PM
Sun, Jun 26
59 °FPassing clouds.5 mph77%30.01 "HgN/A
10:20 PM63 °FMild.6 mph64%30.01 "HgN/A
9:20 PM66 °FPassing clouds.5 mph60%29.98 "HgN/A
8:20 PM68 °FPassing clouds.8 mph53%29.98 "HgN/A
7:20 PM70 °FPartly sunny.7 mph50%29.98 "HgN/A
6:20 PM70 °FPassing clouds.9 mph46%29.98 "HgN/A
Weather by CustomWeather, © 2016

See weather overviewHow to use our weather pages